Time,TemperatureF,DewpointF,PressureIn,WindDirection,WindDirectionDegrees,WindSpeedMPH,WindSpeedGustMPH,Humidity,HourlyPrecipIn,Conditions,Clouds,dailyrainin,SoftwareType,DateUTC
2013-05-08 02:58:00,65.5,53.8,29.78,SSE,157,4.2,-999.0,66,-99.99,,,0.00,Acu-Link.com,2013-05-08 07:58:00,
2013-05-08 03:13:00,66.2,54.5,29.77,SW,225,6.3,-999.0,66,-99.99,,,0.00,Acu-Link.com,2013-05-08 08:13:00,
2013-05-08 03:28:00,68.2,54.7,29.79,SW,225,5.3,-999.0,62,-99.99,,,0.00,Acu-Link.com,2013-05-08 08:28:00,
2013-05-08 03:43:00,68.4,54.9,29.80,SSE,157,0.0,-999.0,62,-99.99,,,0.00,Acu-Link.com,2013-05-08 08:43:00,
2013-05-08 03:58:00,67.6,55.0,29.81,SW,225,3.7,-999.0,64,-99.99,,,0.00,Acu-Link.com,2013-05-08 08:58:00,
2013-05-08 04:14:00,66.6,54.9,29.82,SW,225,3.2,-999.0,66,-99.99,,,0.00,Acu-Link.com,2013-05-08 09:14:00,
2013-05-08 04:29:00,65.7,56.8,29.82,SW,225,1.7,-999.0,73,-99.99,,,0.00,Acu-Link.com,2013-05-08 09:29:00,
2013-05-08 04:44:00,64.2,55.4,29.82,SW,225,1.1,-999.0,73,-99.99,,,0.00,Acu-Link.com,2013-05-08 09:44:00,
2013-05-08 04:59:00,62.4,52.5,29.82,SW,225,2.2,-999.0,70,-99.99,,,0.00,Acu-Link.com,2013-05-08 09:59:00,
2013-05-08 05:14:00,62.6,53.4,29.82,SW,225,1.7,-999.0,72,-99.99,,,0.00,Acu-Link.com,2013-05-08 10:14:00,
2013-05-08 05:29:00,62.1,53.0,29.81,SW,225,2.2,-999.0,72,-99.99,,,0.00,Acu-Link.com,2013-05-08 10:29:00,
2013-05-08 05:44:00,62.8,54.0,29.82,SSW,202,3.7,-999.0,73,-99.99,,,0.00,Acu-Link.com,2013-05-08 10:44:00,
2013-05-08 05:59:00,62.1,53.3,29.81,South,180,2.7,-999.0,73,-99.99,,,0.00,Acu-Link.com,2013-05-08 10:59:00,
2013-05-08 06:15:00,61.9,52.8,29.82,SSE,157,3.2,-999.0,72,-99.99,,,0.00,Acu-Link.com,2013-05-08 11:15:00,
2013-05-08 06:30:00,61.2,51.7,29.82,SSE,157,2.7,-999.0,71,-99.99,,,0.00,Acu-Link.com,2013-05-08 11:30:00,
2013-05-08 06:45:00,61.0,50.8,29.82,SSE,157,5.8,-999.0,69,-99.99,,,0.00,Acu-Link.com,2013-05-08 11:45:00,
2013-05-08 07:00:00,61.3,49.8,29.82,South,180,3.7,-999.0,66,-99.99,,,0.00,Acu-Link.com,2013-05-08 12:00:00,
2013-05-08 07:15:00,63.3,53.3,29.83,SSE,157,4.2,-999.0,70,-99.99,,,0.00,Acu-Link.com,2013-05-08 12:15:00,
2013-05-08 07:30:00,64.0,54.4,29.83,SSE,157,7.8,-999.0,71,-99.99,,,0.00,Acu-Link.com,2013-05-08 12:30:00,
2013-05-08 07:45:00,65.5,56.6,29.84,SSE,157,5.3,-999.0,73,-99.99,,,0.00,Acu-Link.com,2013-05-08 12:45:00,
2013-05-08 08:00:00,65.8,56.9,29.84,SSE,157,4.2,-999.0,73,-99.99,,,0.00,Acu-Link.com,2013-05-08 13:00:00,
2013-05-08 08:15:00,67.3,58.3,29.85,SSW,202,7.8,-999.0,73,-99.99,,,0.00,Acu-Link.com,2013-05-08 13:15:00,
2013-05-08 08:31:00,69.3,60.3,29.85,SSE,157,4.7,-999.0,73,-99.99,,,0.00,Acu-Link.com,2013-05-08 13:31:00,
2013-05-08 08:46:00,70.7,61.2,29.86,South,180,7.3,-999.0,72,-99.99,,,0.00,Acu-Link.com,2013-05-08 13:46:00,
2013-05-08 09:01:00,71.6,61.3,29.86,SSE,157,6.3,-999.0,70,-99.99,,,0.00,Acu-Link.com,2013-05-08 14:01:00,
2013-05-08 09:16:00,71.6,60.5,29.86,South,180,8.9,-999.0,68,-99.99,,,0.00,Acu-Link.com,2013-05-08 14:16:00,
2013-05-08 09:31:00,71.8,60.7,29.86,South,180,6.8,-999.0,68,-99.99,,,0.00,Acu-Link.com,2013-05-08 14:31:00,
2013-05-08 09:46:00,72.1,60.9,29.86,South,180,12.5,-999.0,68,-99.99,,,0.00,Acu-Link.com,2013-05-08 14:46:00,
2013-05-08 10:01:00,72.7,60.7,29.86,SW,225,13.0,-999.0,66,-99.99,,,0.00,Acu-Link.com,2013-05-08 15:01:00,
2013-05-08 10:16:00,73.6,60.7,29.86,South,180,9.9,-999.0,64,-99.99,,,0.00,Acu-Link.com,2013-05-08 15:16:00,
2013-05-08 10:31:00,74.8,61.8,29.87,SSW,202,7.8,-999.0,64,-99.99,,,0.00,Acu-Link.com,2013-05-08 15:31:00,
2013-05-08 10:47:00,73.2,61.6,29.87,SSE,157,10.9,-999.0,67,-99.99,,,0.00,Acu-Link.com,2013-05-08 15:47:00,
2013-05-08 11:02:00,71.8,61.1,29.86,SSW,202,9.9,-999.0,69,-99.99,,,0.00,Acu-Link.com,2013-05-08 16:02:00,
2013-05-08 11:17:00,71.8,61.5,29.87,SSW,202,10.4,-999.0,70,-99.99,,,0.00,Acu-Link.com,2013-05-08 16:17:00,
2013-05-08 11:32:00,71.8,61.5,29.87,SSW,202,6.3,-999.0,70,-99.99,,,0.00,Acu-Link.com,2013-05-08 16:32:00,
2013-05-08 11:47:00,71.4,61.5,29.87,SSE,157,7.3,-999.0,71,-99.99,,,0.00,Acu-Link.com,2013-05-08 16:47:00,
2013-05-08 12:02:00,72.3,62.0,29.86,SSW,202,6.3,-999.0,70,-99.99,,,0.00,Acu-Link.com,2013-05-08 17:02:00,
2013-05-08 12:17:00,72.5,61.7,29.86,SSW,202,9.9,-999.0,69,-99.99,,,0.00,Acu-Link.com,2013-05-08 17:17:00,
2013-05-08 12:32:00,73.9,62.7,29.85,South,180,7.3,-999.0,68,-99.99,,,0.00,Acu-Link.com,2013-05-08 17:32:00,
2013-05-08 12:47:00,73.8,62.6,29.85,SSE,157,9.9,-999.0,68,-99.99,,,0.00,Acu-Link.com,2013-05-08 17:47:00,
2013-05-08 13:03:00,74.7,63.0,29.85,SSW,202,13.5,-999.0,67,-99.99,,,0.00,Acu-Link.com,2013-05-08 18:03:00,
2013-05-08 13:18:00,75.0,62.9,29.84,SSE,157,10.4,-999.0,66,-99.99,,,0.00,Acu-Link.com,2013-05-08 18:18:00,
2013-05-08 13:33:00,76.1,63.0,29.84,SSE,157,10.9,-999.0,64,-99.99,,,0.00,Acu-Link.com,2013-05-08 18:33:00,
2013-05-08 13:48:00,78.4,63.3,29.84,SW,225,8.9,-999.0,60,-99.99,,,0.00,Acu-Link.com,2013-05-08 18:48:00,
2013-05-08 14:03:00,79.2,63.1,29.83,SSW,202,6.3,-999.0,58,-99.99,,,0.00,Acu-Link.com,2013-05-08 19:03:00,
2013-05-08 14:18:00,83.1,63.1,29.83,SSW,202,10.9,-999.0,51,-99.99,,,0.00,Acu-Link.com,2013-05-08 19:18:00,
2013-05-08 14:33:00,82.2,61.7,29.82,SW,225,5.3,-999.0,50,-99.99,,,0.00,Acu-Link.com,2013-05-08 19:33:00,
2013-05-08 14:48:00,81.5,61.0,29.81,SSE,157,9.4,-999.0,50,-99.99,,,0.00,Acu-Link.com,2013-05-08 19:48:00,
2013-05-08 15:03:00,83.8,60.8,29.80,SSE,157,5.8,-999.0,46,-99.99,,,0.00,Acu-Link.com,2013-05-08 20:03:00,
2013-05-08 15:19:00,84.7,60.3,29.80,South,180,10.9,-999.0,44,-99.99,,,0.00,Acu-Link.com,2013-05-08 20:19:00,
2013-05-08 15:34:00,86.0,59.5,29.79,SSE,157,10.9,-999.0,41,-99.99,,,0.00,Acu-Link.com,2013-05-08 20:34:00,
2013-05-08 15:49:00,84.9,59.2,29.79,South,180,8.3,-999.0,42,-99.99,,,0.00,Acu-Link.com,2013-05-08 20:49:00,
2013-05-08 16:04:00,86.9,60.3,29.78,SSE,157,9.4,-999.0,41,-99.99,,,0.00,Acu-Link.com,2013-05-08 21:04:00,
2013-05-08 16:19:00,86.0,60.2,29.77,South,180,5.8,-999.0,42,-99.99,,,0.00,Acu-Link.com,2013-05-08 21:19:00,
2013-05-08 16:34:00,86.7,60.1,29.76,South,180,11.4,-999.0,41,-99.99,,,0.00,Acu-Link.com,2013-05-08 21:34:00,
2013-05-08 16:50:00,85.1,59.4,29.76,SSE,157,9.4,-999.0,42,-99.99,,,0.00,Acu-Link.com,2013-05-08 21:50:00,
2013-05-08 17:05:00,86.0,60.2,29.75,South,180,6.8,-999.0,42,-99.99,,,0.00,Acu-Link.com,2013-05-08 22:05:00,
2013-05-08 17:20:00,85.6,59.8,29.75,SSE,157,14.0,-999.0,42,-99.99,,,0.00,Acu-Link.com,2013-05-08 22:20:00,
2013-05-08 17:35:00,83.7,58.8,29.75,SSE,157,12.5,-999.0,43,-99.99,,,0.00,Acu-Link.com,2013-05-08 22:35:00,
2013-05-08 17:50:00,83.1,58.9,29.75,South,180,6.3,-999.0,44,-99.99,,,0.00,Acu-Link.com,2013-05-08 22:50:00,
2013-05-08 18:05:00,84.2,59.9,29.74,South,180,9.4,-999.0,44,-99.99,,,0.00,Acu-Link.com,2013-05-08 23:05:00,
2013-05-08 18:21:00,83.5,59.3,29.74,South,180,8.3,-999.0,44,-99.99,,,0.00,Acu-Link.com,2013-05-08 23:21:00,
2013-05-08 18:36:00,82.2,59.3,29.73,SW,225,9.9,-999.0,46,-99.99,,,0.00,Acu-Link.com,2013-05-08 23:36:00,
2013-05-08 18:51:00,82.2,59.3,29.72,SSE,157,12.5,-999.0,46,-99.99,,,0.00,Acu-Link.com,2013-05-08 23:51:00,
2013-05-08 19:06:00,81.5,59.3,29.73,South,180,7.3,-999.0,47,-99.99,,,0.00,Acu-Link.com,2013-05-09 00:06:00,
2013-05-08 19:21:00,81.0,59.4,29.72,South,180,8.3,-999.0,48,-99.99,,,0.00,Acu-Link.com,2013-05-09 00:21:00,
2013-05-08 19:36:00,80.8,59.3,29.75,South,180,6.3,-999.0,48,-99.99,,,0.00,Acu-Link.com,2013-05-09 00:36:00,
2013-05-08 21:41:00,74.3,58.1,29.76,South,180,2.7,-999.0,57,-99.99,,,0.00,Acu-Link.com,2013-05-09 02:41:00,
2013-05-08 22:12:00,75.4,58.6,29.76,SSE,157,4.2,-999.0,56,-99.99,,,0.00,Acu-Link.com,2013-05-09 03:12:00,
2013-05-08 22:27:00,75.6,57.8,29.76,SSE,157,6.3,-999.0,54,-99.99,,,0.00,Acu-Link.com,2013-05-09 03:27:00,
2013-05-08 22:42:00,75.2,56.9,29.76,South,180,3.2,-999.0,53,-99.99,,,0.00,Acu-Link.com,2013-05-09 03:42:00,
2013-05-08 22:57:00,74.3,56.6,29.76,ESE,112,8.3,-999.0,54,-99.99,,,0.00,Acu-Link.com,2013-05-09 03:57:00,
2013-05-08 23:12:00,73.4,55.2,29.77,South,180,6.8,-999.0,53,-99.99,,,0.00,Acu-Link.com,2013-05-09 04:12:00,
2013-05-08 23:27:00,73.4,54.7,29.77,SSE,157,7.3,-999.0,52,-99.99,,,0.00,Acu-Link.com,2013-05-09 04:27:00,
2013-05-08 23:43:00,72.9,54.2,29.77,SW,225,5.8,-999.0,52,-99.99,,,0.00,Acu-Link.com,2013-05-09 04:43:00,
2013-05-08 23:58:00,72.0,53.9,29.77,SSE,157,6.3,-999.0,53,-99.99,,,0.00,Acu-Link.com,2013-05-09 04:58:00,